[[{"header":{"parameterUnit":"m.s-1","parameterCategory":1,"la1":30.2991,"la2":30.254,"lo1":-89.0895,"lo2":-89.0444,"dy":0.0017,"dx":0.0017,"nx":28,"ny":28,"refTime":"2023-10-09T03:00:00:Z","depth":0,"parameterNumber":2,"parameterNumberName":"U-component_of_WINDS"},"data":[0,0,0,0,0,0,0,0,0,0,0,0,0,0,0,0,0,0,0,0,0,0,0,0,0,0,0,0,0,0,0,0,0,0,0,0,0,0,0,0,0,0,0,0,0,0,0,0,0,0,0,0,0,0,0,0,0,0,-1.2193,-1.2192,0,-1.2092,-1.2091,-1.209,-1.2024,-1.2024,-1.2024,-1.2023,-1.1918,-1.1915,-1.1913,0,0,0,0,0,0,0,0,0,0,0,0,0,-1.2328,-1.2326,-1.2193,-1.2192,-1.219,-1.2092,-1.2091,-1.2089,-1.2025,-1.2024,-1.2024,-1.2023,-1.1919,-1.1916,-1.1913,0,0,0,0,0,0,0,0,0,0,0,0,0,-1.2252,-1.2325,-1.2193,-1.2146,-1.2141,-1.2092,-1.2091,-1.2089,-1.2025,-1.2024,-1.2023,-1.2023,-1.1919,-1.1916,-1.1912,-1.1902,0,0,-1.1901,-1.19,0,0,0,0,0,0,0,0,-1.2257,-1.2247,-1.2154,-1.2149,-1.2143,-1.207,-1.21,-1.2026,-1.2025,-1.2069,-1.2023,-1.2023,-1.1969,-1.1961,-1.1943,-1.1897,-1.1892,-1.1901,-1.1899,-1.1897,-1.1896,0,0,0,0,0,0,0,-1.2262,-1.2251,-1.2153,-1.2153,-1.2146,-1.213,-1.2118,-1.2085,-1.2023,-1.2065,-1.206,-1.2049,-1.1966,-1.1947,-1.194,-1.1891,-1.1901,-1.1898,-1.1895,-1.1894,-1.1832,-1.1832,0,0,0,0,0,0,-1.2275,-1.2256,-1.2156,-1.215,-1.22,-1.2128,-1.2115,-1.2094,-1.2023,-1.2012,-1.205,-1.2046,-1.1954,-1.1945,-1.1936,-1.1921,-1.1897,-1.1894,-1.1891,-1.1831,-1.1832,-1.1833,0,0,0,0,0,0,-1.2278,-1.2267,-1.216,-1.2202,-1.2187,-1.2126,-1.2103,-1.2093,-1.2074,-1.2012,-1.2,-1.2042,-1.1953,-1.1942,-1.1911,-1.1916,-1.1892,-1.1889,-1.1831,-1.1831,-1.1832,-1.1888,0,0,0,0,0,0,-1.2282,-1.2268,-1.2264,-1.2202,-1.2185,-1.2137,-1.2104,-1.2091,-1.2068,-1.2063,-1.2002,-1.1991,-1.1951,-1.1917,-1.1908,-1.191,-1.1886,-1.183,-1.1831,-1.1832,-1.1886,-1.1891,-1.1895,0,0,0,0,0,-1.2287,-1.2283,-1.2264,-1.2252,-1.2178,-1.2138,-1.2128,-1.2083,-1.2069,-1.2064,-1.2024,-1.1993,-1.1917,-1.1915,-1.1903,-1.1905,-1.1829,-1.1831,-1.1832,-1.1884,-1.189,-1.1895,0,0,0,0,0,0,-1.2345,-1.2274,-1.2252,-1.2227,-1.2189,-1.2127,-1.2119,-1.2091,-1.2055,-1.2052,-1.1997,-1.1983,-1.1959,-1.1929,-1.1927,-1.1892,-1.187,-1.1869,-1.1913,-1.1918,-1.1923,-1.1931,-1.1883,0,0,0,0,0,-1.2355,-1.2329,-1.2267,-1.2252,-1.2234,-1.218,-1.2161,-1.213,-1.2087,-1.2071,-1.2029,-1.1989,-1.1956,-1.1935,-1.1901,-1.1881,-1.1867,-1.1877,-1.1882,-1.1886,-1.1886,-1.1874,-1.1878,-1.1837,-1.1837,-1.1837,0,0,-1.2375,-1.2333,-1.232,-1.2262,-1.2229,-1.2203,-1.2167,-1.214,-1.212,-1.2066,-1.2036,-1.2004,-1.1955,-1.1931,-1.1918,-1.1905,-1.1894,-1.1887,-1.1891,-1.1889,-1.1876,-1.188,-1.1883,-1.1837,-1.1837,-1.1837,0,0,-1.2399,-1.2364,-1.2348,-1.2316,-1.2267,-1.2231,-1.2228,-1.2169,-1.2147,-1.2115,-1.2075,-1.205,-1.1994,-1.1962,-1.1938,-1.1951,-1.1922,-1.1942,-1.1967,-1.1956,-1.196,-1.1962,-1.1968,-1.1971,-1.1942,-1.1942,-1.1942,0,-1.243,-1.239,-1.2343,-1.2319,-1.2296,-1.2247,-1.2231,-1.2201,-1.2143,-1.2128,-1.2114,-1.2045,-1.2008,-1.1976,-1.198,-1.1962,-1.1956,-1.1949,-1.1963,-1.1965,-1.1967,-1.1972,-1.1974,-1.1945,-1.1945,-1.1944,-1.1944,0,-1.2431,-1.2404,-1.2397,-1.2344,-1.2319,-1.2299,-1.2249,-1.2229,-1.2201,-1.2167,-1.2136,-1.2091,-1.2048,-1.2038,-1.2009,-1.2002,-1.1996,-1.1974,-1.195,-1.1975,-1.1979,-1.198,-1.1949,-1.1948,-1.1947,-1.1946,0,0,-1.2488,-1.2411,-1.2409,-1.2385,-1.2327,-1.2305,-1.2283,-1.2242,-1.2227,-1.2189,-1.217,-1.2124,-1.2104,-1.2077,-1.2044,-1.2035,-1.205,-1.2013,-1.2011,-1.2023,-1.2041,-1.2059,-1.2062,-1.203,-1.203,-1.203,-1.2045,0,-1.2504,-1.2463,-1.2421,-1.2395,-1.237,-1.2324,-1.2305,-1.2267,-1.2235,-1.2209,-1.2173,-1.2142,-1.2117,-1.2101,-1.2089,-1.2051,-1.2053,-1.2049,-1.2011,-1.2011,-1.2026,-1.2064,-1.2082,-1.2099,-1.2046,-1.2047,-1.2047,0,-1.2517,-1.2483,-1.2455,-1.2402,-1.2389,-1.2373,-1.2333,-1.2308,-1.2265,-1.2243,-1.2214,-1.2179,-1.2154,-1.2133,-1.2098,-1.2096,-1.2079,-1.2058,-1.2057,-1.2052,-1.2031,-1.2061,-1.2103,-1.2106,-1.2048,-1.2048,-1.2048,0,-1.2564,-1.251,-1.2487,-1.2467,-1.2404,-1.2394,-1.2367,-1.2323,-1.2302,-1.2267,-1.2252,-1.2214,-1.2194,-1.2165,-1.2121,-1.211,-1.2091,-1.2066,-1.2072,-1.2073,-1.207,-1.2071,-1.2111,-1.2058,-1.2057,-1.2057,-1.2057,0,-1.2586,-1.2571,-1.2507,-1.2493,-1.2474,-1.2426,-1.2409,-1.2378,-1.234,-1.2319,-1.2276,-1.2257,-1.22,-1.2174,-1.214,-1.2117,-1.2107,-1.2088,-1.208,-1.2093,-1.2096,-1.2081,-1.2079,-1.2058,-1.2058,-1.2058,-1.2058,0,-1.2635,-1.2591,-1.2563,-1.2506,-1.2491,-1.2481,-1.2432,-1.2416,-1.2382,-1.2356,-1.2347,-1.2293,-1.2261,-1.2214,-1.2167,-1.2144,-1.2127,-1.2111,-1.2142,-1.2137,-1.2145,-1.2146,-1.2178,-1.218,-1.2125,-1.2125,-1.2126,0,-1.2653,-1.264,-1.2583,-1.2566,-1.2541,-1.2514,-1.2493,-1.2445,-1.2424,-1.2375,-1.2366,-1.2331,-1.23,-1.225,-1.2207,-1.2171,-1.2155,-1.2169,-1.215,-1.2164,-1.2157,-1.2159,-1.2158,-1.2174,-1.2175,-1.2176,-1.2176,0,-1.269,-1.2669,-1.264,-1.2604,-1.258,-1.2549,-1.2516,-1.2505,-1.2449,-1.2428,-1.2395,-1.2372,-1.2325,-1.2291,-1.2249,-1.2221,-1.219,-1.2183,-1.2182,-1.2196,-1.2215,-1.2206,-1.2156,-1.2182,-1.2182,-1.2181,-1.2181,-1.2181,-1.2724,-1.2712,-1.267,-1.2639,-1.261,-1.258,-1.2564,-1.2528,-1.25,-1.2459,-1.2432,-1.2401,-1.2359,-1.2301,-1.2274,-1.2249,-1.2236,-1.2235,-1.2235,-1.2236,-1.2241,-1.2218,-1.2241,-1.2241,-1.224,-1.224,-1.224,0,-1.276,-1.2732,-1.2704,-1.266,-1.2636,-1.261,-1.2572,-1.2554,-1.2528,-1.2492,-1.2463,-1.2426,-1.2393,-1.2347,-1.2311,-1.23,-1.2285,-1.2292,-1.2293,-1.2287,-1.2254,-1.2259,-1.2305,-1.2305,-1.2305,-1.2305,-1.2305,-1.2305,-1.2777,-1.2755,-1.2729,-1.2692,-1.2663,-1.2633,-1.2614,-1.2587,-1.2558,-1.2519,-1.2492,-1.2463,-1.2423,-1.2384,-1.2353,-1.234,-1.2329,-1.2341,-1.2324,-1.2295,-1.2289,-1.2283,-1.2288,-1.2339,-1.2339,-1.2359,-1.236,-1.236]},{"header":{"parameterUnit":"m.s-1","parameterCategory":1,"la1":30.2991,"la2":30.254,"lo1":-89.0895,"lo2":-89.0444,"dy":0.0017,"dx":0.0017,"nx":28,"ny":28,"refTime":"2023-10-09T03:00:00:Z","depth":0,"parameterNumber":3,"parameterNumberName":"V-component_of_WINDS"},"data":[0,0,0,0,0,0,0,0,0,0,0,0,0,0,0,0,0,0,0,0,0,0,0,0,0,0,0,0,0,0,0,0,0,0,0,0,0,0,0,0,0,0,0,0,0,0,0,0,0,0,0,0,0,0,0,0,0,0,1.7334,1.7333,0,1.7264,1.7263,1.7263,1.7273,1.7274,1.7276,1.7277,1.7198,1.7195,1.7192,0,0,0,0,0,0,0,0,0,0,0,0,0,1.7471,1.7468,1.7334,1.7333,1.7332,1.7264,1.7263,1.7262,1.7273,1.7274,1.7276,1.7277,1.7199,1.7195,1.7192,0,0,0,0,0,0,0,0,0,0,0,0,0,1.7407,1.7468,1.7334,1.733,1.7329,1.7264,1.7263,1.7262,1.7273,1.7274,1.7276,1.7278,1.72,1.7196,1.7191,1.7125,0,0,1.7176,1.7174,0,0,0,0,0,0,0,0,1.7411,1.7402,1.7331,1.733,1.7329,1.7279,1.7283,1.7216,1.7272,1.7294,1.7277,1.7279,1.7223,1.7217,1.7199,1.7121,1.7118,1.7176,1.7173,1.7171,1.7169,0,0,0,0,0,0,0,1.7415,1.7405,1.7306,1.733,1.7329,1.7329,1.7322,1.727,1.7249,1.7292,1.7293,1.7285,1.7223,1.7204,1.7198,1.7117,1.7176,1.7172,1.7169,1.7167,1.6979,1.6977,0,0,0,0,0,0,1.7422,1.7409,1.7309,1.7304,1.7375,1.7325,1.7317,1.7293,1.725,1.7245,1.7283,1.7285,1.7211,1.7203,1.7195,1.7113,1.7171,1.7166,1.7164,1.6981,1.6979,1.6977,0,0,0,0,0,0,1.7425,1.7413,1.7311,1.7357,1.7344,1.7321,1.7294,1.7291,1.7272,1.7243,1.7239,1.7268,1.7212,1.7202,1.7142,1.7111,1.7164,1.716,1.6984,1.6981,1.6978,1.695,0,0,0,0,0,0,1.7429,1.7414,1.739,1.7356,1.7341,1.7262,1.7292,1.7288,1.7265,1.7267,1.7228,1.7223,1.7213,1.715,1.7138,1.7105,1.7156,1.6987,1.6982,1.6979,1.6954,1.6947,1.6941,0,0,0,0,0,1.7433,1.7384,1.7389,1.7376,1.7311,1.726,1.7251,1.7243,1.7262,1.7237,1.7218,1.7224,1.7117,1.7143,1.713,1.7095,1.6988,1.6984,1.6979,1.6957,1.6948,1.6941,0,0,0,0,0,0,1.7411,1.7379,1.7384,1.7322,1.7294,1.7262,1.723,1.7234,1.7198,1.7201,1.7191,1.7182,1.7121,1.7103,1.7133,1.7029,1.7055,1.7047,1.7043,1.7034,1.7028,1.7032,1.7152,0,0,0,0,0,1.74,1.7363,1.7336,1.7284,1.727,1.7252,1.723,1.7226,1.7195,1.7183,1.716,1.7128,1.7087,1.706,1.7021,1.6952,1.6943,1.6922,1.6915,1.691,1.6902,1.6863,1.6853,1.6961,1.6961,1.6961,0,0,1.7375,1.7353,1.7329,1.7279,1.7257,1.7217,1.7242,1.7199,1.7168,1.7175,1.7118,1.71,1.7064,1.7,1.697,1.6982,1.6871,1.6904,1.69,1.6895,1.6858,1.6847,1.6838,1.6958,1.6959,1.6959,0,0,1.7308,1.7289,1.7243,1.722,1.7187,1.7176,1.7165,1.7132,1.7121,1.7065,1.7069,1.7032,1.6962,1.6935,1.6913,1.6837,1.6841,1.6825,1.6788,1.6751,1.6742,1.6734,1.6705,1.6695,1.6818,1.6818,1.6818,0,1.728,1.7222,1.7218,1.7174,1.7151,1.7159,1.7111,1.7089,1.7043,1.7026,1.7041,1.6954,1.693,1.6859,1.6841,1.6823,1.6808,1.6828,1.6744,1.6736,1.6729,1.6701,1.6691,1.6816,1.6816,1.6816,1.6817,0,1.7188,1.7148,1.7115,1.7073,1.7046,1.7001,1.6988,1.6961,1.696,1.6946,1.6887,1.686,1.6814,1.6798,1.6795,1.6726,1.6734,1.6747,1.6773,1.6717,1.669,1.668,1.6813,1.6814,1.6815,1.6815,0,0,1.7103,1.7062,1.7049,1.703,1.6995,1.6962,1.6916,1.6875,1.6851,1.682,1.6779,1.6721,1.6732,1.6707,1.6702,1.6669,1.6608,1.6685,1.6684,1.667,1.6528,1.6517,1.6505,1.6612,1.661,1.6608,1.653,0,1.7032,1.6953,1.6948,1.6876,1.6837,1.6845,1.6805,1.6777,1.6764,1.6727,1.6712,1.667,1.6689,1.6674,1.6642,1.6623,1.6579,1.6628,1.6571,1.6569,1.6578,1.6491,1.648,1.6407,1.652,1.6518,1.6517,0,1.6937,1.6905,1.683,1.68,1.6783,1.6747,1.6708,1.6675,1.6643,1.6636,1.6608,1.6608,1.6558,1.6588,1.6519,1.6552,1.6529,1.6516,1.6513,1.6505,1.6538,1.6479,1.6384,1.6372,1.6501,1.6502,1.6504,0,1.688,1.6818,1.6765,1.6749,1.6713,1.6687,1.6671,1.6641,1.6617,1.6582,1.6565,1.6525,1.6502,1.647,1.6457,1.6481,1.6388,1.6417,1.6378,1.6378,1.6356,1.6357,1.6254,1.6345,1.6345,1.6345,1.6345,0,1.6799,1.6752,1.6739,1.6706,1.6653,1.6647,1.6594,1.6579,1.6553,1.6515,1.6519,1.6483,1.6471,1.6432,1.6423,1.6366,1.6356,1.6346,1.6344,1.6344,1.6345,1.6327,1.6331,1.6342,1.6343,1.6343,1.6344,0,1.6725,1.6715,1.6657,1.6629,1.6621,1.6582,1.6557,1.6524,1.6512,1.6464,1.6453,1.6433,1.6388,1.6374,1.6319,1.6312,1.6245,1.6248,1.6256,1.6255,1.6216,1.6219,1.6095,1.6077,1.6182,1.6181,1.6181,0,1.6673,1.6637,1.6606,1.6582,1.6565,1.6526,1.6502,1.6495,1.6468,1.6431,1.6401,1.6358,1.6322,1.6249,1.6228,1.6186,1.6186,1.6146,1.618,1.6182,1.6183,1.6184,1.618,1.6139,1.6138,1.6137,1.6136,0,1.658,1.6577,1.6543,1.6506,1.6477,1.6447,1.6419,1.6398,1.6387,1.6357,1.6312,1.6285,1.623,1.6185,1.6143,1.6123,1.6126,1.6126,1.6115,1.6114,1.6119,1.6113,1.6236,1.6128,1.6129,1.613,1.613,1.613,1.6514,1.6482,1.6455,1.6416,1.6395,1.6368,1.6335,1.6321,1.6284,1.624,1.6238,1.6189,1.6158,1.6101,1.608,1.604,1.6051,1.6034,1.603,1.6025,1.6021,1.6128,1.6032,1.6032,1.6033,1.6033,1.6033,0,1.642,1.6403,1.6368,1.6329,1.6297,1.6307,1.6276,1.6249,1.6206,1.6178,1.6144,1.6092,1.6049,1.6025,1.5982,1.5954,1.5955,1.5943,1.5943,1.5938,1.6015,1.6028,1.5943,1.5943,1.5943,1.5943,1.5943,1.5943,1.6367,1.6313,1.6307,1.6242,1.6226,1.6179,1.6161,1.6135,1.6113,1.6055,1.6021,1.6007,1.598,1.5935,1.5895,1.589,1.5872,1.5859,1.5853,1.5924,1.5933,1.5942,1.5954,1.5856,1.5855,1.578,1.578,1.5779]}]]